Aeroporto :
LOGIN :

Iscrizione | Disclaimer

   EN    FR    IT 

 










Sommario :    VFR   VFR Marginale   IFR   IFR Intensivo   IFR Molto Intensivo
Visibilità : 
Base nubi : 
>= 8 km
>= 3000ft
5 / 8 km
1000 / 3000 ft
1500m / 5 km
500 / 1000 ft
800 / 1500m
200 / 500 ft
< 800m
< 200 ft
Simboli :   Temporali  Nebbia  Neve Forte  Precipitazioni Forti  Vento > 20 kt
SIGMETs :   Varie  Temporali  Ghiacco  Turbolenza  Onda orograficha  Ceneri Vulcaniche






- Altitudine del aeroporto : 306 ft
- Codice IATA : EMA


EGNX - Nottingham East Midlands

ULTIMO METAR :
  • 041450Z 18009KT 9999 SCT040 13/05 Q1018

METARs OBSOLETI :
  • 041420Z 20012KT 9999 FEW030 13/05 Q1018
  • 041350Z 18008KT 160V220 9999 FEW025 13/05 Q1018
  • 041320Z 18009KT 9999 FEW025 13/06 Q1019
  • 041250Z 20013KT CAVOK 10/05 Q1019

TAF TAF EGNX
Valido dal 04 a 12 ore il 05 a 12 ore UTC


041059Z 0412/0512 17012KT 9999 FEW040
TEMPO 0421/0512 15015G25KT
ATIS : +44 1332 852 852 (ext 3201)



MetMap, La meteo Aeronautica in un colpo d'occhio ! - Copyright ORBIFLY Dicembre 2007 - Disclaimer

ORBIFLY MET'MAP TEAM :

Programmazione e sviluppo : Alexandra Zaïnal
Concezione : Baudouin d'Aumeries
Aiuto per la programmazione : Marc-Olivier Méhu
Supporto tecnico e logistico : Manuel Goepfert
Aiuto per la traduzione : Arnaldo La Scala

Contatto : metmap@orbifly.com




FONTI E CREDITI :

   NOAA